Weather History for Cecil Field, FL

Change the Weather History Date:

Thursday, January 3, 2013

  Actual Average (KJAX) Record (KJAX)
Temperature  
Mean Temperature 55 °F 53 °F  
Max Temperature 62 °F 64 °F 80 °F (1982)
Min Temperature 48 °F 41 °F 19 °F (1979)
Degree Days  
Heating Degree Days 10 13  
Month to date heating degree days 38  
Since 1 July heating degree days 534  
Cooling Degree Days 0 0  
Month to date cooling degree days 0  
Year to date cooling degree days 0  
Growing Degree Days 5 (Base 50)    
Moisture  
Dew Point 55 °F    
Average Humidity 99    
Maximum Humidity 100    
Minimum Humidity 93    
Precipitation  
Precipitation 0.00 in 0.09 in 1.97 in (1942)
Month to date precipitation 0.26  
Year to date precipitation 0.26  
Snow  
Snow 0.00 in 0.00 in 0.00 in (2002)
Month to date snowfall 0.0  
Since 1 July snowfall T  
Snow Depth -    
Sea Level Pressure  
Sea Level Pressure 30.15 in    
Wind  
Wind Speed 3 mph (North)    
Max Wind Speed 12 mph    
Max Gust Speed -    
Visibility 6 miles    
Events Rain    
T = Trace of Precipitation, MM = Missing Value Source: NWS Daily Summary

Daily Weather History Graph

Daily Weather History Graph

Search for Another Location

Airport:

Trip Planner

Search our weather history database for the weather conditions in past years. The results will help you decide how hot, cold, wet, or windy it might be!

Date:

Astronomy

Jan. 03, 2013 Rise Set
Actual Time 7:24 AM EST 5:40 PM EST
Civil Twilight 6:58 AM EST 6:06 PM EST
Nautical Twilight 6:28 AM EST 6:36 PM EST
Astronomical Twilight 5:59 AM EST 7:05 PM EST
Moon 11:43 PM EST (1/3) 11:02 AM EST (1/3)
Length of Visible Light 11h 08m
Length of Day
10h 15m
Waning Gibbous, 65% of the Moon is Illuminated
Jan 3
Waning Gibbous
Jan 4
Last Quarter
Jan 11
New
Jan 18
First Quarter
Jan 26
Full

Hourly Weather History & Observations

Time (EST) Temp. Dew Point Humidity Pressure Visibility Wind Dir Wind Speed Gust Speed Precip Events Conditions
12:15 AM 62.6 °F 62.6 °F 100% 30.08 in 3.0 mi Calm Calm - N/A   Overcast
12:35 AM 62.6 °F 62.6 °F 100% 30.08 in 3.0 mi Calm Calm - N/A   Overcast
12:55 AM 60.8 °F 60.8 °F 100% 30.09 in 1.2 mi NNW 8.1 mph - N/A Rain Light Rain
1:15 AM 60.8 °F 60.8 °F 100% 30.08 in 1.0 mi North 6.9 mph - N/A Rain Light Rain
1:35 AM 59.0 °F 59.0 °F 100% 30.08 in 1.5 mi North 6.9 mph - N/A Rain Light Rain
1:55 AM 59.0 °F 59.0 °F 100% 30.08 in 2.5 mi North 5.8 mph - N/A Rain Light Rain
2:15 AM 59.0 °F 59.0 °F 100% 30.08 in 4.0 mi Calm Calm - N/A   Overcast
2:35 AM 59.0 °F 59.0 °F 100% 30.07 in 10.0 mi Calm Calm - N/A   Overcast
2:55 AM 59.0 °F 59.0 °F 100% 30.07 in 10.0 mi Calm Calm - N/A   Overcast
3:15 AM 59.0 °F 59.0 °F 100% 30.08 in 10.0 mi Calm Calm - N/A   Overcast
3:35 AM 59.0 °F 59.0 °F 100% 30.07 in 10.0 mi Calm Calm - N/A   Overcast
3:55 AM 59.0 °F 59.0 °F 100% 30.08 in 9.0 mi NNE 4.6 mph - N/A   Overcast
4:15 AM 59.0 °F 59.0 °F 100% 30.08 in 7.0 mi Calm Calm - N/A   Overcast
4:35 AM 57.2 °F 57.2 °F 100% 30.08 in 5.0 mi NNE 4.6 mph - N/A   Overcast
4:55 AM 57.2 °F 57.2 °F 100% 30.08 in 5.0 mi NNE 5.8 mph - N/A   Overcast
5:15 AM 57.2 °F 57.2 °F 100% 30.08 in 7.0 mi Calm Calm - N/A   Overcast
5:35 AM 57.2 °F 57.2 °F 100% 30.09 in 6.0 mi NNE 6.9 mph - N/A   Overcast
5:55 AM 57.2 °F 57.2 °F 100% 30.10 in 5.0 mi Calm Calm - N/A   Overcast
6:15 AM 57.2 °F 57.2 °F 100% 30.10 in 5.0 mi NNE 9.2 mph - N/A   Overcast
6:35 AM 57.2 °F 57.2 °F 100% 30.10 in 4.0 mi North 5.8 mph - N/A   Overcast
6:50 AM 57.2 °F 57.2 °F 100% 30.10 in 4.0 mi Calm Calm - N/A   Overcast
7:50 AM 57.2 °F 57.2 °F 100% 30.13 in 6.0 mi NNE 9.2 mph - N/A   Overcast
8:50 AM 57.2 °F 57.2 °F 100% 30.15 in 7.0 mi NNE 9.2 mph - N/A   Overcast
9:50 AM 57.2 °F 57.2 °F 100% 30.15 in 10.0 mi NNE 5.8 mph - N/A   Overcast
10:50 AM 59.0 °F 57.2 °F 94% 30.17 in 10.0 mi North 11.5 mph - N/A   Overcast
11:26 AM 57.2 °F 57.2 °F 100% 30.18 in 2.0 mi North - - N/A Rain Light Rain
11:50 AM 57.2 °F 57.2 °F 100% 30.17 in 2.0 mi North - - N/A Rain Light Rain
12:50 PM 57.2 °F 57.2 °F 100% 30.15 in 7.0 mi North - - N/A   Overcast
1:50 PM 57.2 °F 57.2 °F 100% 30.14 in 7.0 mi North 8.1 mph - N/A   Overcast
2:50 PM 57.2 °F 55.4 °F 94% 30.14 in 2.0 mi NW 5.8 mph - N/A Rain Light Rain
5:50 PM 53.6 °F 53.6 °F 100% 30.18 in 1.5 mi North 11.5 mph - N/A Rain Light Rain
7:50 PM 48.2 °F 48.2 °F 100% 30.22 in 4.0 mi North 9.2 mph - N/A Rain Light Rain
8:15 PM 48.2 °F 46.4 °F 93% 30.24 in 10.0 mi North 9.2 mph - N/A   Overcast
8:35 PM 48.2 °F 46.4 °F 93% 30.24 in 10.0 mi Calm Calm - N/A Rain Light Rain
8:55 PM 48.2 °F 46.4 °F 93% 30.24 in 10.0 mi NNE 3.5 mph - N/A   Overcast
9:15 PM 48.2 °F 48.2 °F 100% 30.25 in 10.0 mi Calm Calm - N/A   Overcast
9:35 PM 48.2 °F 48.2 °F 100% 30.26 in 10.0 mi NNW 5.8 mph - N/A   Overcast
9:55 PM 48.2 °F 48.2 °F 100% 30.26 in 7.0 mi Calm Calm - N/A   Overcast
10:15 PM 48.2 °F 48.2 °F 100% 30.26 in 10.0 mi Calm Calm - N/A   Overcast
10:35 PM 48.2 °F 48.2 °F 100% 30.26 in 2.0 mi North 4.6 mph - N/A Rain Light Rain
10:55 PM 48.2 °F 48.2 °F 100% 30.25 in 4.0 mi Calm Calm - N/A Rain Light Rain
11:15 PM 48.2 °F 48.2 °F 100% 30.25 in 10.0 mi Calm Calm - N/A   Overcast
11:35 PM 48.2 °F 48.2 °F 100% 30.26 in 10.0 mi Calm Calm - N/A   Mostly Cloudy
11:55 PM 48.2 °F 48.2 °F 100% 30.24 in 10.0 mi North 6.9 mph - N/A   Overcast